Location: Varese
(45.8000°N, 8.8330°E)
Time: 03:40:05
(UTC+02:00)

ISS - Pass Details

Date: 14 May 2021
Orbit: 417 x 422 km, 51.6° (Epoch: 14 June)

Event Time Altitude Azimuth Distance (km) Brightness Sun altitude
Rises 04:26:27 0° 297° (WNW) 2,374 -0.1 -13.1°
Reaches altitude 10° 04:28:33 10° 297° (WNW) 1,507 -1.1 -12.8°
Maximum altitude 04:31:56 82° 211° (SSW) 430 -3.9 -12.4°
Drops below altitude 10° 04:35:19 10° 123° (ESE) 1,502 -0.8 -12.0°
Sets 04:37:24 0° 122° (ESE) 2,364 0.3 -11.7°
